HEBOWX Weather Reports


Display with metric or nautical units.
time (UTC)temp
F
wind
direction
speed
MPH
gust
MPH
rain 1hr
in
rain 24hr
in
rain mn
in
humidity
%
barometer
mb
20260507172034 49 0 0.0 0.0 0.00 0.00 0.00 68 1016.1
20260507171534 49 0 0.0 1.0 0.00 0.00 0.00 69 1016.1
20260507171034 49 0 0.0 1.0 0.00 0.00 0.00 70 1016.3
20260507170534 49 23 0.0 1.0 0.00 0.00 0.00 70 1016.1
20260507170034 48 123 0.0 0.0 0.00 0.00 0.00 69 1016.3
20260507165534 48 228 0.0 3.0 0.00 0.00 0.00 68 1016.0
20260507165034 48 0 0.0 3.0 0.00 0.00 0.00 70 1016.1
20260507164535 48 250 0.0 3.0 0.00 0.00 0.00 70 1016.1
20260507164034 48 151 0.0 3.0 0.00 0.00 0.00 70 1016.0
20260507163539 48 0 0.0 3.0 0.00 0.00 0.00 71 1016.0
20260507163034 48 254 0.0 3.0 0.00 0.00 0.00 72 1016.0
20260507162534 48 0 1.0 1.0 0.00 0.00 0.00 73 1016.0
20260507162034 48 0 0.0 0.0 0.00 0.00 0.00 70 1016.1
20260507161534 47 0 0.0 0.0 0.00 0.00 0.00 73 1016.0
20260507161034 47 0 0.0 0.0 0.00 0.00 0.00 73 1015.9
20260507160534 47 0 0.0 0.0 0.00 0.00 0.00 74 1016.1
20260507160034 47 0 0.0 0.0 0.00 0.00 0.00 74 1015.9
20260507155535 47 0 0.0 0.0 0.00 0.00 0.00 75 1016.0
20260507155034 47 0 0.0 0.0 0.00 0.00 0.00 76 1016.0
20260507154534 47 0 0.0 0.0 0.00 0.00 0.00 76 1016.1
20260507154034 46 0 0.0 0.0 0.00 0.00 0.00 76 1016.0
20260507153535 46 0 0.0 0.0 0.00 0.00 0.00 77 1016.3
20260507153034 46 0 0.0 0.0 0.00 0.00 0.00 76 1015.9
20260507152534 46 0 0.0 0.0 0.00 0.00 0.00 77 1016.0
20260507152034 46 0 0.0 0.0 0.00 0.00 0.00 78 1015.9
20260507151534 45 0 0.0 0.0 0.00 0.00 0.00 78 1015.7
20260507151034 45 0 0.0 0.0 0.00 0.00 0.00 78 1016.0
20260507150535 45 0 0.0 0.0 0.00 0.00 0.00 78 1015.9
20260507150035 45 0 0.0 0.0 0.00 0.00 0.00 78 1015.9
20260507145534 45 0 0.0 0.0 0.00 0.00 0.00 78 1016.0
20260507145034 45 0 0.0 0.0 0.00 0.00 0.00 78 1015.7
20260507144534 45 0 0.0 0.0 0.00 0.00 0.00 78 1015.7
20260507144034 45 0 0.0 0.0 0.00 0.00 0.00 78 1015.9
20260507143534 45 0 0.0 0.0 0.00 0.00 0.00 78 1015.9
20260507143034 44 0 0.0 0.0 0.00 0.00 0.00 79 1015.6
20260507142535 44 0 0.0 0.0 0.00 0.00 0.00 77 1016.0
20260507142034 44 0 0.0 0.0 0.00 0.00 0.00 76 1015.7
20260507141534 44 0 0.0 0.0 0.00 0.00 0.00 79 1015.6
20260507141034 44 0 0.0 0.0 0.00 0.00 0.00 79 1015.7
20260507140534 44 0 0.0 0.0 0.00 0.00 0.00 79 1015.6
20260507140034 44 0 0.0 0.0 0.00 0.00 0.00 79 1015.6
20260507135534 43 0 0.0 0.0 0.00 0.00 0.00 79 1016.2
20260507135034 43 0 0.0 0.0 0.00 0.00 0.00 79 1015.7
20260507134534 43 0 0.0 0.0 0.00 0.00 0.00 79 1015.7
20260507134034 43 0 0.0 0.0 0.00 0.00 0.00 79 1015.6
20260507133534 43 0 0.0 0.0 0.00 0.00 0.00 79 1015.4
20260507133034 43 0 0.0 0.0 0.00 0.00 0.00 79 1015.5
20260507132534 43 0 0.0 0.0 0.00 0.00 0.00 79 1016.0
20260507132034 43 0 0.0 0.0 0.00 0.00 0.00 79 1015.9
20260507131534 43 0 0.0 0.0 0.00 0.00 0.00 78 1015.5
20260507131034 43 0 0.0 0.0 0.00 0.00 0.00 79 1015.9
20260507130535 43 0 0.0 0.0 0.00 0.00 0.00 79 1015.5
20260507130034 43 0 0.0 0.0 0.00 0.00 0.00 79 1015.5
20260507125534 43 0 0.0 0.0 0.00 0.00 0.00 78 1015.9
20260507125034 44 0 0.0 0.0 0.00 0.00 0.00 79 1015.7
20260507124534 44 0 0.0 0.0 0.00 0.00 0.00 79 1015.6
20260507124033 44 0 0.0 0.0 0.00 0.00 0.00 79 1016.1
20260507123533 44 0 0.0 0.0 0.00 0.00 0.00 79 1015.6
20260507123033 44 0 0.0 0.0 0.00 0.00 0.00 79 1015.6
20260507122533 44 0 0.0 0.0 0.00 0.00 0.00 79 1015.9
20260507122033 45 0 0.0 0.0 0.00 0.00 0.00 79 1015.7
20260507121533 45 0 0.0 0.0 0.00 0.00 0.00 80 1015.7
20260507121033 45 0 0.0 0.0 0.00 0.00 0.00 80 1015.7
20260507120533 45 0 0.0 0.0 0.00 0.00 0.00 80 1015.7
20260507120034 45 0 0.0 0.0 0.00 0.00 0.00 80 1015.9
20260507115534 45 0 0.0 0.0 0.00 0.00 0.00 80 1016.0
20260507115033 45 0 0.0 0.0 0.00 0.00 0.00 79 1016.0
20260507114533 45 0 0.0 0.0 0.00 0.00 0.00 80 1016.0
20260507114034 45 0 0.0 0.0 0.00 0.00 0.00 80 1016.0
20260507113533 45 0 0.0 0.0 0.00 0.00 0.00 80 1016.0
20260507113033 45 0 0.0 0.0 0.00 0.00 0.00 80 1016.0
20260507112536 45 0 0.0 0.0 0.00 0.00 0.00 80 1016.1
20260507112033 45 0 0.0 0.0 0.00 0.00 0.00 80 1016.1
20260507111533 45 0 0.0 0.0 0.00 0.00 0.00 80 1016.1
20260507111033 45 0 0.0 0.0 0.00 0.00 0.00 81 1016.3
20260507110533 45 0 0.0 0.0 0.00 0.00 0.00 80 1016.1
20260507110033 45 0 0.0 0.0 0.00 0.00 0.00 81 1016.2
20260507105533 45 0 0.0 0.0 0.00 0.00 0.00 80 1016.2
20260507105033 45 0 0.0 0.0 0.00 0.00 0.00 80 1016.2
20260507104533 45 0 0.0 0.0 0.00 0.00 0.00 80 1016.2
20260507104033 44 0 0.0 0.0 0.00 0.00 0.00 80 1016.2
20260507103533 44 0 0.0 0.0 0.00 0.00 0.00 79 1016.3
20260507103033 44 0 0.0 0.0 0.00 0.00 0.00 79 1016.3
20260507102533 44 0 0.0 0.0 0.00 0.00 0.00 80 1016.4
20260507102034 43 0 0.0 0.0 0.00 0.00 0.00 80 1016.4
20260507101533 43 0 0.0 0.0 0.00 0.00 0.00 79 1016.4
20260507101035 43 0 0.0 0.0 0.00 0.00 0.00 78 1016.5
20260507100533 43 0 0.0 0.0 0.00 0.00 0.00 79 1016.5
20260507100033 43 0 0.0 0.0 0.00 0.00 0.00 78 1016.6
20260507095534 43 0 0.0 0.0 0.00 0.00 0.00 79 1016.6
20260507095033 43 0 0.0 0.0 0.00 0.00 0.00 79 1016.6
20260507094033 43 0 0.0 0.0 0.00 0.00 0.00 79 1016.6
20260507093533 43 0 0.0 0.0 0.00 0.00 0.00 79 1016.7
20260507093033 42 0 0.0 0.0 0.00 0.00 0.00 79 1016.9
20260507092533 43 0 0.0 0.0 0.00 0.00 0.00 79 1016.9
20260507092033 43 0 0.0 0.0 0.00 0.00 0.00 79 1017.0
20260507091533 43 0 0.0 0.0 0.00 0.00 0.00 79 1017.0
20260507091034 43 0 0.0 0.0 0.00 0.00 0.00 78 1016.9
20260507090533 43 0 0.0 0.0 0.00 0.00 0.00 78 1016.9
20260507090034 43 0 0.0 0.0 0.00 0.00 0.00 79 1017.1
20260507085533 43 0 0.0 0.0 0.00 0.00 0.00 79 1017.1
20260507085033 43 0 0.0 0.0 0.00 0.00 0.00 78 1017.1
20260507084533 43 0 0.0 0.0 0.00 0.00 0.00 78 1017.2
20260507084033 43 0 0.0 0.0 0.00 0.00 0.00 79 1017.4
20260507083533 43 0 0.0 0.0 0.00 0.00 0.00 78 1017.2
20260507083033 43 0 0.0 0.0 0.00 0.00 0.00 79 1017.5
20260507082534 43 0 0.0 0.0 0.00 0.00 0.00 79 1017.4
20260507082033 43 0 0.0 0.0 0.00 0.00 0.00 78 1017.4
20260507081533 43 0 0.0 0.0 0.00 0.00 0.00 78 1017.1
20260507081033 43 0 0.0 0.0 0.00 0.00 0.00 78 1017.1
20260507080533 43 0 0.0 0.0 0.00 0.00 0.00 79 1017.2
20260507080033 43 0 0.0 0.0 0.00 0.00 0.00 79 1017.3
20260507075533 43 0 0.0 0.0 0.00 0.00 0.00 79 1017.4
20260507075035 43 0 0.0 0.0 0.00 0.00 0.00 79 1017.2
20260507074533 43 0 0.0 0.0 0.00 0.00 0.00 79 1017.2
20260507074033 43 0 0.0 0.0 0.00 0.00 0.00 79 1017.5
20260507073533 43 0 0.0 0.0 0.00 0.00 0.00 79 1017.3
20260507073033 43 0 0.0 0.0 0.00 0.00 0.00 79 1017.2
20260507072533 43 0 0.0 0.0 0.00 0.00 0.00 80 1017.4
20260507072033 43 0 0.0 0.0 0.00 0.00 0.00 80 1017.1
20260507071534 43 0 0.0 0.0 0.00 0.00 0.00 80 1017.1
20260507071034 43 0 0.0 0.0 0.00 0.00 0.00 80 1017.1
20260507070533 43 0 0.0 0.0 0.00 0.00 0.00 80 1017.3
20260507070035 43 0 0.0 0.0 0.00 0.00 0.00 80 1017.2
20260507065533 43 0 0.0 0.0 0.00 0.00 0.00 79 1017.2
20260507065033 43 0 0.0 0.0 0.00 0.00 0.00 79 1017.1
20260507064534 43 0 0.0 0.0 0.00 0.00 0.00 80 1017.3
20260507064033 43 0 0.0 0.0 0.00 0.00 0.00 79 1017.3
20260507063533 42 0 0.0 0.0 0.00 0.00 0.00 80 1017.2
20260507063033 43 0 0.0 0.0 0.00 0.00 0.00 79 1017.4
20260507062532 43 0 0.0 0.0 0.00 0.00 0.00 80 1017.5
20260507062033 43 0 0.0 0.0 0.00 0.00 0.00 80 1017.3
20260507061533 43 0 0.0 0.0 0.00 0.00 0.00 80 1017.6
20260507061033 43 0 0.0 2.0 0.00 0.00 0.00 80 1017.4
20260507060649 43 0 0.0 2.0 0.00 0.00 0.00 80 1017.3
20260507060533 43 0 0.0 2.0 0.00 0.00 0.00 80 1017.3
20260507060033 43 26 0.0 2.0 0.00 0.00 0.00 79 1017.3
20260507055533 43 0 0.0 1.0 0.00 0.00 0.00 79 1017.5
20260507055033 43 0 0.0 1.0 0.00 0.00 0.00 79 1017.6
20260507054533 43 336 0.0 1.0 0.00 0.00 0.00 79 1017.3
20260507054033 43 0 0.0 0.0 0.00 0.00 0.00 79 1017.5
20260507053533 43 0 0.0 0.0 0.00 0.00 0.00 79 1017.4
20260507053033 43 0 0.0 0.0 0.00 0.00 0.00 79 1017.4
20260507052533 43 0 0.0 0.0 0.00 0.00 0.00 79 1017.5
20260507052033 44 333 0.0 1.0 0.00 0.00 0.00 79 1017.7
20260507051533 43 0 0.0 1.0 0.00 0.00 0.00 79 1017.7
20260507051033 43 333 0.0 1.0 0.00 0.00 0.00 79 1017.5
20260507050533 44 340 0.0 1.0 0.00 0.00 0.00 78 1017.5
20260507050033 44 0 0.0 1.0 0.00 0.00 0.00 78 1017.3
20260507045534 44 326 0.0 1.0 0.00 0.00 0.00 78 1017.3
20260507045033 44 326 0.0 3.0 0.00 0.00 0.00 79 1017.3
20260507044533 44 334 0.0 3.0 0.00 0.00 0.00 78 1017.4
20260507044033 44 309 0.0 3.0 0.00 0.00 0.00 78 1017.4
20260507043533 44 334 0.0 2.0 0.00 0.00 0.00 78 1017.5
20260507043033 44 326 0.0 2.0 0.00 0.00 0.00 78 1017.5
20260507042533 44 1 0.0 1.0 0.00 0.00 0.00 78 1017.5
20260507042032 44 0 0.0 4.0 0.00 0.00 0.00 77 1017.5
20260507041533 44 330 0.0 4.0 0.00 0.00 0.00 77 1017.5
20260507041033 44 312 0.0 4.0 0.00 0.00 0.00 77 1017.4
20260507040534 44 337 0.0 3.0 0.00 0.00 0.00 78 1017.4
20260507040033 45 338 0.0 3.0 0.00 0.00 0.00 77 1017.4
20260507035533 45 334 0.0 3.0 0.00 0.00 0.00 77 1017.4
20260507035032 45 334 0.0 3.0 0.00 0.00 0.00 77 1017.3
20260507034532 45 344 0.0 4.0 0.00 0.00 0.00 77 1017.3
20260507034032 45 341 1.0 4.0 0.00 0.00 0.00 77 1017.2
20260507033532 45 320 0.0 4.0 0.00 0.00 0.00 76 1017.2
20260507033032 45 343 0.0 3.0 0.00 0.00 0.00 77 1017.2
20260507032534 45 331 1.0 3.0 0.00 0.00 0.00 76 1017.1
20260507032032 45 333 0.0 3.0 0.00 0.00 0.00 75 1017.2
20260507031533 45 326 1.0 4.0 0.00 0.00 0.00 76 1017.1
20260507031032 45 331 0.0 4.0 0.00 0.00 0.00 75 1017.1
20260507030532 46 357 0.0 4.0 0.00 0.00 0.00 76 1017.0
20260507030033 46 319 2.0 3.0 0.00 0.00 0.00 75 1017.1
20260507025533 46 347 1.0 3.0 0.00 0.00 0.00 75 1017.1
20260507025032 46 345 1.0 3.0 0.00 0.00 0.00 75 1017.1
20260507024533 46 329 1.0 3.0 0.00 0.00 0.00 75 1017.0
20260507024033 46 329 1.0 3.0 0.00 0.00 0.00 74 1017.0
20260507023532 47 316 0.0 3.0 0.00 0.00 0.00 75 1017.0
20260507023032 47 319 0.0 3.0 0.00 0.00 0.00 74 1017.0
20260507022533 47 331 1.0 2.0 0.00 0.00 0.00 74 1017.0
20260507022032 47 347 0.0 4.0 0.00 0.00 0.00 72 1017.1
20260507021532 47 320 1.0 4.0 0.00 0.00 0.00 73 1017.0
20260507021033 48 312 0.0 4.0 0.00 0.00 0.00 72 1017.1
20260507020532 48 330 0.0 3.0 0.00 0.00 0.00 72 1017.1
20260507020032 48 329 0.0 3.0 0.00 0.00 0.00 72 1017.1
20260507015534 49 282 0.0 2.0 0.00 0.00 0.00 71 1017.2
20260507015032 49 340 0.0 2.0 0.00 0.00 0.00 70 1017.2
20260507014532 49 326 0.0 2.0 0.00 0.00 0.00 69 1017.2
20260507014035 49 336 0.0 2.0 0.00 0.00 0.00 68 1017.3
20260507013533 49 336 0.0 2.0 0.00 0.00 0.00 67 1017.3
20260507013033 50 303 0.0 2.0 0.00 0.00 0.00 66 1017.3
20260507012533 50 326 1.0 1.0 0.00 0.00 0.00 66 1017.3
20260507012033 50 7 0.0 2.0 0.00 0.00 0.00 66 1017.3
20260507011536 50 336 0.0 2.0 0.00 0.00 0.00 66 1017.4
20260507011032 50 338 0.0 2.0 0.00 0.00 0.00 65 1017.4
20260507010533 50 336 0.0 3.0 0.00 0.00 0.00 64 1017.4
20260507010035 50 334 0.0 3.0 0.00 0.00 0.00 65 1017.4
20260507005533 51 287 0.0 3.0 0.00 0.00 0.00 64 1017.5
20260507005032 50 341 0.0 2.0 0.00 0.00 0.00 64 1017.5
20260507004532 51 337 0.0 2.0 0.00 0.00 0.00 63 1017.4
20260507004032 51 7 0.0 2.0 0.00 0.00 0.00 63 1017.5
20260507003532 51 317 0.0 2.0 0.00 0.00 0.00 62 1017.5
20260507003033 51 320 0.0 2.0 0.00 0.00 0.00 63 1017.5
20260507002535 51 340 0.0 1.0 0.00 0.00 0.00 63 1017.4
20260507002033 51 333 0.0 4.0 0.00 0.00 0.00 63 1017.5
20260507001532 52 326 0.0 4.0 0.00 0.00 0.00 62 1017.5
20260507001035 52 285 0.0 4.0 0.00 0.00 0.00 63 1017.5
20260507000532 52 289 2.0 2.0 0.00 0.00 0.00 61 1017.5
20260507000032 52 338 1.0 2.0 0.00 0.00 0.00 62 1017.5
20260506235533 52 337 0.0 2.0 0.00 0.00 0.00 61 1017.5
20260506235032 52 323 0.0 2.0 0.00 0.00 0.00 60 1017.6
20260506234532 53 303 0.0 4.0 0.00 0.00 0.00 60 1017.6
20260506234032 53 299 0.0 4.0 0.00 0.00 0.00 60 1017.6
20260506233532 53 305 0.0 4.0 0.00 0.00 0.00 61 1017.6
20260506233032 53 303 0.0 4.0 0.00 0.00 0.00 60 1017.6
20260506232534 53 285 0.0 4.0 0.00 0.00 0.00 61 1017.6
20260506232032 53 287 0.0 4.0 0.00 0.00 0.00 61 1017.6
20260506231532 53 280 1.0 3.0 0.00 0.00 0.00 61 1017.7
20260506231032 53 296 0.0 3.0 0.00 0.00 0.00 61 1017.7
20260506230533 53 268 1.0 5.0 0.00 0.00 0.00 60 1017.7
20260506230032 53 275 1.0 5.0 0.00 0.00 0.00 53 1017.7
20260506225534 53 309 1.0 5.0 0.00 0.00 0.00 54 1017.9
20260506225032 54 273 1.0 4.0 0.00 0.00 0.00 58 1017.7
20260506224532 54 305 1.0 3.0 0.00 0.00 0.00 59 1017.9
20260506224034 54 294 1.0 6.0 0.00 0.00 0.00 53 1017.9
20260506223532 54 312 1.0 6.0 0.00 0.00 0.00 58 1018.0
20260506223032 54 298 1.0 6.0 0.00 0.00 0.00 58 1018.0
20260506222534 54 33 1.0 6.0 0.00 0.00 0.00 58 1018.0
20260506222034 55 278 2.0 6.0 0.00 0.00 0.00 57 1018.1
20260506221532 55 278 1.0 6.0 0.00 0.00 0.00 57 1018.0
20260506221032 55 280 1.0 5.0 0.00 0.00 0.00 57 1018.1
20260506220532 55 288 1.0 5.0 0.00 0.00 0.00 57 1018.1
20260506220033 55 275 2.0 6.0 0.00 0.00 0.00 56 1018.1
20260506215534 55 267 1.0 6.0 0.00 0.00 0.00 56 1018.0
20260506215032 56 294 1.0 6.0 0.00 0.00 0.00 50 1018.0
20260506214532 56 268 0.0 5.0 0.00 0.00 0.00 50 1018.0
20260506214033 56 280 2.0 4.0 0.00 0.00 0.00 55 1018.0
20260506213532 56 261 1.0 4.0 0.00 0.00 0.00 55 1018.0
20260506213032 56 287 0.0 5.0 0.00 0.00 0.00 48 1018.0
20260506212537 56 277 1.0 5.0 0.00 0.00 0.00 54 1018.0
20260506212032 56 261 1.0 5.0 0.00 0.00 0.00 53 1018.0
20260506211532 57 271 2.0 3.0 0.00 0.00 0.00 54 1018.0
20260506211032 57 268 0.0 5.0 0.00 0.00 0.00 54 1018.0
20260506210532 57 263 0.0 5.0 0.00 0.00 0.00 55 1018.0
20260506210034 56 268 0.0 5.0 0.00 0.00 0.00 55 1018.0
20260506205534 56 277 0.0 4.0 0.00 0.00 0.00 55 1018.0
20260506205032 56 273 0.0 4.0 0.00 0.00 0.00 55 1018.0
20260506204534 56 264 0.0 3.0 0.00 0.00 0.00 55 1018.0
20260506204032 56 292 0.0 3.0 0.00 0.00 0.00 53 1017.9
20260506203532 57 264 1.0 3.0 0.00 0.00 0.00 54 1017.9
20260506203032 56 259 0.0 7.0 0.00 0.00 0.00 54 1017.7
20260506202534 56 254 0.0 7.0 0.00 0.00 0.00 48 1017.7
20260506202032 56 270 0.0 7.0 0.00 0.00 0.00 55 1017.9
20260506201532 56 278 1.0 4.0 0.00 0.00 0.00 54 1017.9
20260506201032 56 268 0.0 2.0 0.00 0.00 0.00 48 1017.9
20260506200532 56 270 0.0 4.0 0.00 0.00 0.00 55 1017.7
20260506200032 56 278 2.0 4.0 0.00 0.00 0.00 56 1017.7
20260506195534 56 294 0.0 4.0 0.00 0.00 0.00 55 1017.7
20260506195033 56 253 2.0 2.0 0.00 0.00 0.00 55 1018.0
20260506194532 55 267 0.0 5.0 0.00 0.00 0.00 56 1018.0
20260506194033 55 284 3.0 5.0 0.00 0.00 0.00 56 1018.0
20260506193532 55 277 1.0 5.0 0.00 0.00 0.00 56 1017.9
20260506193032 55 281 3.0 5.0 0.00 0.00 0.00 56 1017.9
20260506192532 55 292 2.0 5.0 0.00 0.00 0.00 57 1017.9
20260506192034 55 268 0.0 5.0 0.00 0.00 0.00 57 1017.9
20260506191534 55 278 0.0 4.0 0.00 0.00 0.00 57 1017.7
20260506191033 55 284 1.0 6.0 0.00 0.00 0.00 57 1017.9
20260506190532 55 280 2.0 6.0 0.00 0.00 0.00 57 1017.7
20260506190034 55 264 1.0 6.0 0.00 0.00 0.00 57 1017.6
20260506185534 55 271 2.0 6.0 0.00 0.00 0.00 56 1017.7
20260506185032 55 281 3.0 6.0 0.00 0.00 0.00 57 1017.6
20260506184532 55 277 1.0 6.0 0.00 0.00 0.00 57 1017.7
20260506184032 55 281 3.0 5.0 0.00 0.00 0.00 57 1017.6
20260506183533 55 281 2.0 5.0 0.00 0.00 0.00 57 1017.6
20260506183032 55 266 0.0 4.0 0.00 0.00 0.00 57 1017.6
20260506182534 55 261 2.0 4.0 0.00 0.00 0.00 57 1017.6
20260506182032 56 313 1.0 2.0 0.00 0.00 0.00 57 1017.6
20260506181532 55 0 0.0 0.0 0.00 0.00 0.00 58 1017.5
20260506181032 55 0 0.0 0.0 0.00 0.00 0.00 58 1017.5
20260506180532 55 0 0.0 0.0 0.00 0.00 0.00 58 1017.4
20260506180033 56 0 0.0 0.0 0.00 0.00 0.00 58 1017.4
20260506175534 56 0 0.0 0.0 0.00 0.00 0.00 58 1017.4
20260506175032 56 0 0.0 0.0 0.00 0.00 0.00 58 1017.3
20260506174532 56 0 0.0 0.0 0.00 0.00 0.00 58 1017.3
20260506174033 56 0 0.0 0.0 0.00 0.00 0.00 58 1017.3
20260506173531 56 81 0.0 0.0 0.00 0.00 0.00 59 1017.2
20260506173032 55 0 0.0 0.0 0.00 0.00 0.00 59 1017.2
20260506172533 55 0 0.0 1.0 0.00 0.00 0.00 60 1017.2